[[{"header":{"parameterUnit":"m.s-1","parameterCategory":1,"la1":30.2991,"la2":30.254,"lo1":-89.0895,"lo2":-89.0444,"dy":0.0017,"dx":0.0017,"nx":28,"ny":28,"refTime":"2024-02-06T09:00:00:Z","depth":0,"parameterNumber":2,"parameterNumberName":"U-component_of_WINDS"},"data":[0,0,0,0,0,0,0,0,0,0,0,0,0,0,0,0,0,0,0,0,0,0,0,0,0,0,0,0,0,0,0,0,0,0,0,0,0,0,0,0,0,0,0,0,0,0,0,0,0,0,0,0,0,0,0,0,0,0,2.3345,2.3346,0,2.337,2.3371,2.3371,2.3324,2.3322,2.3321,2.3319,2.3346,2.3348,2.335,0,0,0,0,0,0,0,0,0,0,0,0,0,2.3259,2.3261,2.3345,2.3346,2.3346,2.337,2.3371,2.3371,2.3324,2.3322,2.332,2.3319,2.3345,2.3347,2.335,0,0,0,0,0,0,0,0,0,0,0,0,0,2.3291,2.3261,2.3345,2.3325,2.3324,2.337,2.3371,2.3371,2.3325,2.3322,2.332,2.3318,2.3344,2.3347,2.335,2.3417,0,0,2.336,2.3362,0,0,0,0,0,0,0,0,2.329,2.3295,2.3328,2.3327,2.3325,2.3342,2.335,2.3387,2.3325,2.3324,2.3319,2.3317,2.3346,2.3349,2.3359,2.3418,2.342,2.336,2.3362,2.3364,2.3365,0,0,0,0,0,0,0,2.3287,2.3293,2.3355,2.3329,2.3327,2.3316,2.3318,2.3357,2.3348,2.3324,2.3321,2.3325,2.3345,2.3356,2.3359,2.342,2.336,2.3363,2.3365,2.3367,2.3539,2.3541,0,0,0,0,0,0,2.3287,2.3292,2.3354,2.3356,2.3301,2.332,2.3322,2.3339,2.3348,2.3347,2.3327,2.3322,2.3352,2.3356,2.336,2.3441,2.3364,2.3367,2.3369,2.3536,2.3539,2.3542,0,0,0,0,0,0,2.3286,2.3293,2.3353,2.3323,2.333,2.3324,2.3343,2.3341,2.3351,2.3349,2.3348,2.3339,2.335,2.3355,2.3404,2.3441,2.3368,2.3371,2.3533,2.3537,2.3541,2.3603,0,0,0,0,0,0,2.3284,2.3293,2.3318,2.3324,2.3332,2.3397,2.3345,2.3343,2.3357,2.3352,2.3361,2.336,2.3348,2.3399,2.3407,2.3445,2.3374,2.353,2.3535,2.354,2.3598,2.3609,2.3618,0,0,0,0,0,2.3281,2.3334,2.3319,2.3327,2.3362,2.3399,2.3403,2.3389,2.336,2.3386,2.3385,2.336,2.3436,2.3405,2.3413,2.3452,2.3527,2.3533,2.3539,2.3593,2.3606,2.3618,0,0,0,0,0,0,2.3332,2.3334,2.3318,2.3375,2.3387,2.3391,2.3422,2.3403,2.3424,2.3418,2.3399,2.3402,2.3455,2.3458,2.3423,2.3519,2.3477,2.3485,2.3515,2.3528,2.3538,2.3537,2.3376,0,0,0,0,0,2.335,2.3379,2.3379,2.3429,2.3436,2.3429,2.3444,2.3432,2.3444,2.3449,2.3451,2.3464,2.3491,2.3509,2.3534,2.3597,2.36,2.3628,2.3639,2.3647,2.3655,2.3691,2.3705,2.3562,2.3562,2.3562,0,0,2.3387,2.3392,2.3411,2.344,2.3448,2.348,2.3433,2.3468,2.3491,2.3454,2.3501,2.3503,2.3516,2.3574,2.3599,2.3578,2.3695,2.3655,2.3661,2.3664,2.3699,2.3712,2.3725,2.3566,2.3565,2.3564,0,0,2.3472,2.3477,2.3521,2.353,2.3544,2.3538,2.3549,2.3556,2.3557,2.3603,2.3577,2.3605,2.3651,2.3662,2.3674,2.3766,2.3745,2.3774,2.3828,2.3864,2.3876,2.3885,2.3921,2.3933,2.3781,2.3782,2.3782,0,2.3516,2.3563,2.3546,2.3583,2.3598,2.3566,2.3611,2.3621,2.3641,2.3653,2.3628,2.3688,2.3694,2.3755,2.3778,2.3788,2.3801,2.3774,2.3875,2.3885,2.3894,2.3927,2.394,2.3785,2.3785,2.3785,2.3784,0,2.3618,2.3651,2.3685,2.3707,2.3725,2.3766,2.3756,2.3776,2.3763,2.3761,2.3811,2.3817,2.3844,2.3857,2.3844,2.3917,2.3904,2.3878,2.3836,2.3912,2.3943,2.3955,2.3791,2.3789,2.3788,2.3787,0,0,2.3736,2.3749,2.3762,2.3773,2.3786,2.3811,2.3852,2.3878,2.3897,2.3913,2.3948,2.3988,2.3965,2.3979,2.3967,2.3998,2.4074,2.3968,2.3969,2.399,2.4158,2.4179,2.4194,2.4059,2.4062,2.4063,2.4158,0,2.3822,2.3892,2.3879,2.3947,2.3979,2.395,2.3985,2.3998,2.3997,2.4025,2.4023,2.4054,2.4019,2.4028,2.4058,2.4058,2.4108,2.4051,2.4093,2.4095,2.4093,2.421,2.4232,2.432,2.4169,2.4171,2.4173,0,2.3931,2.3953,2.4025,2.4035,2.4048,2.408,2.4105,2.413,2.4145,2.4142,2.4159,2.4142,2.4184,2.414,2.4199,2.4161,2.4177,2.418,2.4183,2.4188,2.414,2.422,2.4348,2.4362,2.4191,2.419,2.4189,0,2.4013,2.4059,2.4109,2.4119,2.4132,2.4156,2.4162,2.4174,2.4192,2.4213,2.4225,2.4251,2.4266,2.4287,2.4278,2.4246,2.4339,2.4294,2.434,2.434,2.4362,2.4361,2.4496,2.4369,2.4369,2.4369,2.4368,0,2.4112,2.4158,2.4146,2.4177,2.4229,2.4214,2.4265,2.4268,2.428,2.4311,2.4287,2.4318,2.4303,2.4333,2.4326,2.4377,2.4383,2.4383,2.4382,2.4387,2.4387,2.4399,2.4393,2.4372,2.4371,2.4371,2.437,0,2.4212,2.4206,2.4259,2.4268,2.4271,2.4309,2.4316,2.4346,2.4344,2.4385,2.4393,2.4391,2.4425,2.4418,2.4454,2.445,2.4515,2.4504,2.4511,2.4509,2.4556,2.4553,2.4705,2.4726,2.4583,2.4584,2.4586,0,2.4277,2.4312,2.4324,2.4344,2.4353,2.4385,2.4403,2.439,2.4411,2.4431,2.4459,2.4491,2.4516,2.4572,2.4574,2.4603,2.4594,2.4646,2.4598,2.4604,2.4598,2.4597,2.4601,2.4656,2.4657,2.4658,2.4659,0,2.4393,2.4388,2.4416,2.4443,2.4466,2.4487,2.4505,2.4523,2.4511,2.4536,2.4571,2.459,2.4629,2.4662,2.469,2.4697,2.4678,2.4674,2.4687,2.4694,2.4697,2.4699,2.4539,2.4671,2.467,2.4669,2.4669,2.4668,2.4479,2.4509,2.4524,2.4556,2.4569,2.4587,2.4616,2.4619,2.4647,2.4679,2.4669,2.471,2.4725,2.476,2.4771,2.4803,2.4784,2.4801,2.4806,2.4811,2.4819,2.4691,2.4808,2.4807,2.4807,2.4807,2.4806,0,2.4596,2.4604,2.4634,2.4661,2.4687,2.4666,2.4685,2.4709,2.4745,2.4761,2.4787,2.4828,2.4861,2.4865,2.4896,2.4922,2.4914,2.493,2.4929,2.4932,2.4832,2.482,2.4937,2.4937,2.4937,2.4937,2.4936,2.4936,2.466,2.4712,2.471,2.4768,2.4776,2.4816,2.483,2.4847,2.486,2.4908,2.4935,2.4938,2.495,2.4982,2.5012,2.5012,2.5026,2.5047,2.5044,2.4952,2.4939,2.4926,2.4914,2.5049,2.5049,2.5141,2.5142,2.5143]},{"header":{"parameterUnit":"m.s-1","parameterCategory":1,"la1":30.2991,"la2":30.254,"lo1":-89.0895,"lo2":-89.0444,"dy":0.0017,"dx":0.0017,"nx":28,"ny":28,"refTime":"2024-02-06T09:00:00:Z","depth":0,"parameterNumber":3,"parameterNumberName":"V-component_of_WINDS"},"data":[0,0,0,0,0,0,0,0,0,0,0,0,0,0,0,0,0,0,0,0,0,0,0,0,0,0,0,0,0,0,0,0,0,0,0,0,0,0,0,0,0,0,0,0,0,0,0,0,0,0,0,0,0,0,0,0,0,0,-2.3914,-2.3915,0,-2.4017,-2.4018,-2.402,-2.4072,-2.4072,-2.4072,-2.4072,-2.4175,-2.4178,-2.418,0,0,0,0,0,0,0,0,0,0,0,0,0,-2.3764,-2.3767,-2.3914,-2.3915,-2.3917,-2.4017,-2.4019,-2.402,-2.4072,-2.4072,-2.4072,-2.4072,-2.4174,-2.4177,-2.4181,0,0,0,0,0,0,0,0,0,0,0,0,0,-2.3845,-2.3768,-2.3914,-2.3955,-2.396,-2.4017,-2.4019,-2.402,-2.4072,-2.4072,-2.4072,-2.4072,-2.4173,-2.4177,-2.4181,-2.4205,0,0,-2.4194,-2.4195,0,0,0,0,0,0,0,0,-2.384,-2.385,-2.3948,-2.3952,-2.3958,-2.4032,-2.4004,-2.4082,-2.4072,-2.4029,-2.4072,-2.4072,-2.4127,-2.4135,-2.4154,-2.421,-2.4214,-2.4194,-2.4196,-2.4198,-2.4199,0,0,0,0,0,0,0,-2.3834,-2.3846,-2.3955,-2.3949,-2.3955,-2.3969,-2.398,-2.4019,-2.4076,-2.4033,-2.4037,-2.4049,-2.413,-2.415,-2.4157,-2.4216,-2.4194,-2.4197,-2.42,-2.4201,-2.4302,-2.4302,0,0,0,0,0,0,-2.3822,-2.3841,-2.3952,-2.3958,-2.3898,-2.3971,-2.3984,-2.4008,-2.4076,-2.4087,-2.4048,-2.4051,-2.4143,-2.4152,-2.4161,-2.4197,-2.4198,-2.4202,-2.4204,-2.4302,-2.4302,-2.4302,0,0,0,0,0,0,-2.3819,-2.3831,-2.3947,-2.3901,-2.3917,-2.3974,-2.4,-2.401,-2.403,-2.4088,-2.4099,-2.4058,-2.4144,-2.4155,-2.4195,-2.4201,-2.4204,-2.4207,-2.4302,-2.4302,-2.4302,-2.4267,0,0,0,0,0,0,-2.3814,-2.383,-2.3838,-2.3901,-2.3919,-2.3979,-2.4,-2.4012,-2.4037,-2.4041,-2.41,-2.411,-2.4145,-2.4189,-2.4199,-2.4207,-2.4211,-2.4301,-2.4302,-2.4302,-2.4268,-2.4267,-2.4265,0,0,0,0,0,-2.3809,-2.3823,-2.3839,-2.3852,-2.3931,-2.3979,-2.399,-2.403,-2.4037,-2.4048,-2.4086,-2.4108,-2.4199,-2.4192,-2.4204,-2.4214,-2.4301,-2.4302,-2.4302,-2.4269,-2.4267,-2.4265,0,0,0,0,0,0,-2.3757,-2.3831,-2.385,-2.3884,-2.3926,-2.3988,-2.4001,-2.4026,-2.4065,-2.4067,-2.4114,-2.4127,-2.4164,-2.4193,-2.4184,-2.4244,-2.4253,-2.4256,-2.4223,-2.4222,-2.422,-2.4213,-2.4214,0,0,0,0,0,-2.375,-2.3784,-2.3846,-2.3871,-2.3891,-2.3943,-2.3965,-2.3994,-2.4038,-2.4055,-2.4096,-2.4137,-2.4177,-2.42,-2.4239,-2.4273,-2.4289,-2.4286,-2.4284,-2.4283,-2.4285,-2.431,-2.4311,-2.4304,-2.4304,-2.4304,0,0,-2.3735,-2.378,-2.3798,-2.3862,-2.3897,-2.3932,-2.3957,-2.3991,-2.4018,-2.406,-2.4102,-2.4133,-2.4183,-2.4222,-2.4241,-2.4247,-2.4291,-2.4283,-2.4281,-2.4285,-2.4311,-2.4312,-2.4312,-2.4305,-2.4305,-2.4305,0,0,-2.3727,-2.3763,-2.379,-2.3826,-2.388,-2.3916,-2.3922,-2.3983,-2.4006,-2.4049,-2.4083,-2.4116,-2.418,-2.4217,-2.4243,-2.4256,-2.4279,-2.4266,-2.4258,-2.4283,-2.4283,-2.4284,-2.4292,-2.4294,-2.4268,-2.4268,-2.4268,0,-2.3701,-2.3755,-2.38,-2.3835,-2.3863,-2.3906,-2.3935,-2.3968,-2.4031,-2.4051,-2.4057,-2.4143,-2.4179,-2.423,-2.4234,-2.4252,-2.4264,-2.426,-2.428,-2.4281,-2.4282,-2.429,-2.4293,-2.4267,-2.4267,-2.4267,-2.4267,0,-2.3723,-2.376,-2.3776,-2.3839,-2.387,-2.3901,-2.3953,-2.3978,-2.4005,-2.4041,-2.4087,-2.4133,-2.4184,-2.4198,-2.4222,-2.4254,-2.4256,-2.427,-2.4281,-2.428,-2.4289,-2.4292,-2.4264,-2.4265,-2.4265,-2.4266,0,0,-2.3681,-2.3774,-2.3779,-2.3811,-2.3877,-2.3907,-2.3942,-2.3994,-2.4018,-2.4061,-2.4094,-2.415,-2.4166,-2.4196,-2.4226,-2.4247,-2.426,-2.426,-2.4262,-2.4261,-2.4302,-2.4292,-2.4295,-2.4276,-2.4277,-2.4277,-2.4299,0,-2.3684,-2.375,-2.3794,-2.3843,-2.3881,-2.3925,-2.3956,-2.4001,-2.4036,-2.4074,-2.4113,-2.4154,-2.4169,-2.4189,-2.4212,-2.4253,-2.4269,-2.4252,-2.4309,-2.431,-2.4296,-2.4299,-2.4287,-2.4305,-2.4302,-2.4302,-2.4303,0,-2.3695,-2.3741,-2.3795,-2.3863,-2.388,-2.3907,-2.3962,-2.3996,-2.405,-2.4074,-2.4112,-2.4144,-2.4185,-2.4193,-2.4252,-2.424,-2.4266,-2.4291,-2.4293,-2.43,-2.4307,-2.4309,-2.4311,-2.4315,-2.4308,-2.4307,-2.4307,0,-2.3664,-2.3739,-2.3782,-2.3808,-2.3886,-2.3906,-2.3939,-2.3993,-2.4024,-2.4071,-2.4092,-2.4143,-2.4171,-2.4211,-2.4257,-2.4257,-2.4314,-2.4324,-2.4338,-2.4337,-2.4347,-2.4346,-2.4356,-2.4361,-2.4361,-2.4361,-2.4361,0,-2.3663,-2.3695,-2.377,-2.3797,-2.3835,-2.3887,-2.3924,-2.3961,-2.401,-2.4046,-2.4086,-2.412,-2.4178,-2.4219,-2.4255,-2.4302,-2.4313,-2.4336,-2.4345,-2.4333,-2.4331,-2.4352,-2.4353,-2.4361,-2.4361,-2.4361,-2.4361,0,-2.3634,-2.3685,-2.3736,-2.3809,-2.3828,-2.3854,-2.3916,-2.3945,-2.3985,-2.403,-2.4044,-2.4106,-2.4157,-2.4208,-2.4274,-2.43,-2.4347,-2.4358,-2.4329,-2.4335,-2.4347,-2.4347,-2.4372,-2.438,-2.4377,-2.4377,-2.4377,0,-2.363,-2.3657,-2.3734,-2.3762,-2.3796,-2.384,-2.3873,-2.3927,-2.3959,-2.4026,-2.4047,-2.4102,-2.4149,-2.4229,-2.428,-2.4333,-2.4348,-2.4354,-2.4356,-2.4345,-2.4352,-2.4351,-2.4356,-2.4352,-2.4352,-2.4352,-2.4351,0,-2.3621,-2.3647,-2.3692,-2.375,-2.3789,-2.3835,-2.3883,-2.3904,-2.3968,-2.4003,-2.4057,-2.4093,-2.4166,-2.4221,-2.4281,-2.4317,-2.4346,-2.4351,-2.4358,-2.4346,-2.433,-2.4342,-2.4328,-2.435,-2.435,-2.435,-2.435,-2.435,-2.3606,-2.3634,-2.3695,-2.3746,-2.3789,-2.3835,-2.3867,-2.3913,-2.396,-2.4024,-2.4053,-2.4109,-2.4167,-2.4252,-2.4288,-2.4333,-2.434,-2.4348,-2.4351,-2.4353,-2.4352,-2.4322,-2.4344,-2.4344,-2.4344,-2.4344,-2.4344,0,-2.3601,-2.3644,-2.3691,-2.376,-2.3802,-2.3828,-2.3884,-2.3917,-2.3966,-2.4019,-2.4066,-2.4131,-2.4186,-2.4244,-2.4302,-2.4328,-2.4343,-2.4342,-2.4341,-2.435,-2.4341,-2.4331,-2.4329,-2.4329,-2.4329,-2.4329,-2.4329,-2.4329,-2.3604,-2.3654,-2.3688,-2.3761,-2.3803,-2.386,-2.389,-2.3934,-2.3977,-2.4048,-2.4096,-2.4134,-2.419,-2.4254,-2.4307,-2.4323,-2.4344,-2.4339,-2.4359,-2.4349,-2.435,-2.4351,-2.4342,-2.4343,-2.4343,-2.4366,-2.4366,-2.4366]}]]